| time (UTC) | temp F | wind direction | speed MPH | gust MPH | rain 1hr in | rain 24hr in | rain mn in | humidity % | barometer mb |
| 20260504060201 | 46 | 220 | 3.0 | 5.0 | 0.00 | 0.00 | 0.00 | 62 | 1010.3 |
| 20260504050629 | 48 | 256 | 3.0 | 5.0 | 0.00 | 0.00 | 0.00 | 60 | 1010.3 |
| 20260504050126 | 48 | 281 | 3.0 | 3.0 | 0.00 | 0.00 | 0.00 | 59 | 1010.3 |
| 20260504045623 | 48 | 218 | 4.0 | 7.0 | 0.00 | 0.00 | 0.00 | 59 | 1010.4 |
| 20260504045118 | 49 | 235 | 2.0 | 3.0 | 0.00 | 0.00 | 0.00 | 58 | 1010.3 |
| 20260504044616 | 49 | 229 | 3.0 | 3.0 | 0.00 | 0.00 | 0.00 | 57 | 1010.2 |
| 20260504044113 | 50 | 257 | 3.0 | 6.0 | 0.00 | 0.00 | 0.00 | 57 | 1010.3 |
| 20260504043610 | 50 | 261 | 4.0 | 6.0 | 0.00 | 0.00 | 0.00 | 57 | 1010.4 |
| 20260504043107 | 50 | 251 | 2.0 | 2.0 | 0.00 | 0.00 | 0.00 | 56 | 1010.5 |
| 20260504042604 | 50 | 244 | 3.0 | 3.0 | 0.00 | 0.00 | 0.00 | 56 | 1010.4 |
| 20260504042101 | 50 | 228 | 6.0 | 7.0 | 0.00 | 0.00 | 0.00 | 56 | 1010.4 |
| 20260504041556 | 50 | 270 | 3.0 | 3.0 | 0.00 | 0.00 | 0.00 | 57 | 1010.5 |
| 20260504041053 | 50 | 255 | 2.0 | 2.0 | 0.00 | 0.00 | 0.00 | 57 | 1010.5 |
| 20260504040550 | 50 | 242 | 3.0 | 3.0 | 0.00 | 0.00 | 0.00 | 57 | 1010.4 |
| 20260504040047 | 50 | 216 | 4.0 | 5.0 | 0.00 | 0.00 | 0.00 | 58 | 1010.2 |
| 20260504035544 | 50 | 236 | 3.0 | 5.0 | 0.00 | 0.00 | 0.00 | 58 | 1010.4 |
| 20260504035040 | 50 | 236 | 2.0 | 3.0 | 0.00 | 0.00 | 0.00 | 59 | 1010.2 |
| 20260504034538 | 50 | 280 | 1.0 | 1.0 | 0.00 | 0.00 | 0.00 | 59 | 1010.3 |
| 20260504034035 | 50 | 301 | 1.0 | 1.0 | 0.00 | 0.00 | 0.00 | 58 | 1010.2 |
| 20260504033533 | 51 | 261 | 1.0 | 1.0 | 0.00 | 0.00 | 0.00 | 58 | 1010.3 |
| 20260504033030 | 51 | 235 | 2.0 | 2.0 | 0.00 | 0.00 | 0.00 | 57 | 1010.3 |
| 20260504032527 | 51 | 210 | 2.0 | 2.0 | 0.00 | 0.00 | 0.00 | 56 | 1010.4 |
| 20260504032024 | 52 | 219 | 1.0 | 2.0 | 0.00 | 0.00 | 0.00 | 53 | 1010.5 |
| 20260504031521 | 52 | 227 | 1.0 | 2.0 | 0.00 | 0.00 | 0.00 | 52 | 1010.3 |
| 20260504031017 | 52 | 221 | 1.0 | 2.0 | 0.00 | 0.00 | 0.00 | 52 | 1010.5 |
| 20260504030514 | 52 | 258 | 1.0 | 1.0 | 0.00 | 0.00 | 0.00 | 50 | 1010.4 |
| 20260504030010 | 52 | 241 | 1.0 | 1.0 | 0.00 | 0.00 | 0.00 | 50 | 1010.3 |
| 20260504025507 | 52 | 283 | 1.0 | 2.0 | 0.00 | 0.00 | 0.00 | 50 | 1010.7 |
| 20260504025004 | 52 | 240 | 0.0 | 1.0 | 0.00 | 0.00 | 0.00 | 50 | 1010.7 |
| 20260504024502 | 52 | 267 | 0.0 | 0.0 | 0.00 | 0.00 | 0.00 | 50 | 1010.8 |
| 20260504023958 | 53 | 264 | 0.0 | 0.0 | 0.00 | 0.00 | 0.00 | 49 | 1010.8 |
| 20260504023455 | 53 | 297 | 3.0 | 5.0 | 0.00 | 0.00 | 0.00 | 49 | 1011.0 |
| 20260504022950 | 53 | 265 | 1.0 | 1.0 | 0.00 | 0.00 | 0.00 | 49 | 1010.8 |
| 20260504022447 | 53 | 277 | 4.0 | 5.0 | 0.00 | 0.00 | 0.00 | 49 | 1011.0 |
| 20260504021943 | 53 | 265 | 3.0 | 3.0 | 0.00 | 0.00 | 0.00 | 49 | 1011.1 |
| 20260504021441 | 52 | 255 | 1.0 | 2.0 | 0.00 | 0.00 | 0.00 | 50 | 1011.0 |
| 20260504020938 | 52 | 285 | 3.0 | 5.0 | 0.00 | 0.00 | 0.00 | 50 | 1010.8 |
| 20260504020434 | 52 | 279 | 4.0 | 6.0 | 0.00 | 0.00 | 0.00 | 50 | 1010.9 |
| 20260504015931 | 52 | 320 | 3.0 | 5.0 | 0.00 | 0.00 | 0.00 | 50 | 1010.9 |
| 20260504015427 | 52 | 275 | 4.0 | 5.0 | 0.00 | 0.00 | 0.00 | 50 | 1010.7 |
| 20260504014923 | 51 | 298 | 1.0 | 1.0 | 0.00 | 0.00 | 0.00 | 51 | 1010.9 |
| 20260504014419 | 51 | 232 | 3.0 | 3.0 | 0.00 | 0.00 | 0.00 | 52 | 1010.8 |
| 20260504013916 | 51 | 268 | 3.0 | 6.0 | 0.00 | 0.00 | 0.00 | 53 | 1011.0 |
| 20260504013415 | 51 | 260 | 1.0 | 1.0 | 0.00 | 0.00 | 0.00 | 52 | 1010.9 |
| 20260504012910 | 51 | 276 | 5.0 | 8.0 | 0.00 | 0.00 | 0.00 | 51 | 1010.8 |
| 20260504012409 | 51 | 274 | 0.0 | 0.0 | 0.00 | 0.00 | 0.00 | 52 | 1010.8 |
| 20260504011906 | 51 | 261 | 0.0 | 0.0 | 0.00 | 0.00 | 0.00 | 51 | 1010.8 |
| 20260504011403 | 51 | 276 | 0.0 | 0.0 | 0.00 | 0.00 | 0.00 | 50 | 1010.5 |
| 20260504010858 | 51 | 311 | 1.0 | 2.0 | 0.00 | 0.00 | 0.00 | 51 | 1010.6 |
| 20260504010354 | 51 | 288 | 3.0 | 3.0 | 0.00 | 0.00 | 0.00 | 51 | 1010.6 |
| 20260504005851 | 51 | 320 | 0.0 | 0.0 | 0.00 | 0.00 | 0.00 | 53 | 1010.5 |
| 20260504005348 | 51 | 284 | 0.0 | 0.0 | 0.00 | 0.00 | 0.00 | 54 | 1010.6 |
| 20260504004845 | 50 | 257 | 0.0 | 0.0 | 0.00 | 0.00 | 0.00 | 54 | 1010.4 |
| 20260504004343 | 50 | 252 | 0.0 | 0.0 | 0.00 | 0.00 | 0.00 | 55 | 1010.4 |
| 20260504003839 | 50 | 288 | 0.0 | 0.0 | 0.00 | 0.00 | 0.00 | 54 | 1010.5 |
| 20260504003336 | 50 | 272 | 1.0 | 1.0 | 0.00 | 0.00 | 0.00 | 55 | 1010.4 |
| 20260504002833 | 51 | 298 | 4.0 | 5.0 | 0.00 | 0.00 | 0.00 | 55 | 1010.3 |
| 20260504002330 | 51 | 286 | 2.0 | 2.0 | 0.00 | 0.00 | 0.00 | 53 | 1010.2 |
| 20260504001827 | 51 | 302 | 2.0 | 2.0 | 0.00 | 0.00 | 0.00 | 56 | 1009.8 |
| 20260504001324 | 52 | 260 | 0.0 | 0.0 | 0.00 | 0.00 | 0.00 | 51 | 1009.6 |
| 20260504000821 | 52 | 303 | 1.0 | 1.0 | 0.00 | 0.00 | 0.00 | 50 | 1009.8 |
| 20260504000318 | 53 | 273 | 0.0 | 0.0 | 0.00 | 0.00 | 0.00 | 49 | 1009.6 |
| 20260503235816 | 53 | 248 | 2.0 | 2.0 | 0.00 | 0.00 | 0.00 | 47 | 1009.5 |
| 20260503235313 | 53 | 237 | 2.0 | 2.0 | 0.00 | 0.00 | 0.00 | 46 | 1009.6 |
| 20260503234811 | 53 | 230 | 2.0 | 2.0 | 0.00 | 0.00 | 0.00 | 46 | 1009.5 |
| 20260503234308 | 53 | 248 | 3.0 | 3.0 | 0.00 | 0.00 | 0.00 | 46 | 1009.6 |
| 20260503233806 | 53 | 237 | 3.0 | 3.0 | 0.00 | 0.00 | 0.00 | 46 | 1009.7 |
| 20260503233301 | 54 | 212 | 4.0 | 5.0 | 0.00 | 0.00 | 0.00 | 47 | 1009.5 |
| 20260503232758 | 55 | 228 | 3.0 | 5.0 | 0.00 | 0.00 | 0.00 | 46 | 1009.6 |
| 20260503232256 | 55 | 219 | 4.0 | 5.0 | 0.00 | 0.00 | 0.00 | 44 | 1009.4 |
| 20260503231754 | 55 | 222 | 3.0 | 3.0 | 0.00 | 0.00 | 0.00 | 46 | 1009.3 |
| 20260503231250 | 55 | 260 | 1.0 | 2.0 | 0.00 | 0.00 | 0.00 | 43 | 1009.7 |
| 20260503230746 | 55 | 209 | 5.0 | 7.0 | 0.00 | 0.00 | 0.00 | 43 | 1009.6 |
| 20260503230244 | 55 | 265 | 0.0 | 1.0 | 0.00 | 0.00 | 0.00 | 44 | 1009.5 |
| 20260503225741 | 55 | 301 | 3.0 | 5.0 | 0.00 | 0.00 | 0.00 | 42 | 1009.3 |
| 20260503225241 | 55 | 307 | 5.0 | 7.0 | 0.00 | 0.00 | 0.00 | 42 | 1009.5 |
| 20260503224738 | 56 | 205 | 3.0 | 5.0 | 0.00 | 0.00 | 0.00 | 42 | 1009.4 |
| 20260503224236 | 56 | 263 | 1.0 | 1.0 | 0.00 | 0.00 | 0.00 | 42 | 1009.4 |
| 20260503223733 | 56 | 282 | 8.0 | 9.0 | 0.00 | 0.00 | 0.00 | 41 | 1009.4 |
| 20260503223231 | 57 | 237 | 3.0 | 3.0 | 0.00 | 0.00 | 0.00 | 41 | 1009.7 |
| 20260503222727 | 57 | 288 | 5.0 | 9.0 | 0.00 | 0.00 | 0.00 | 41 | 1009.5 |
| 20260503222225 | 56 | 242 | 1.0 | 2.0 | 0.00 | 0.00 | 0.00 | 43 | 1009.6 |
| 20260503221723 | 56 | 310 | 4.0 | 6.0 | 0.00 | 0.00 | 0.00 | 42 | 1009.9 |
| 20260503221221 | 56 | 315 | 7.0 | 8.0 | 0.00 | 0.00 | 0.00 | 42 | 1009.8 |
| 20260503220717 | 56 | 281 | 7.0 | 9.0 | 0.00 | 0.00 | 0.00 | 41 | 1009.9 |
| 20260503220214 | 55 | 269 | 1.0 | 1.0 | 0.00 | 0.00 | 0.00 | 43 | 1009.8 |
| 20260503215710 | 55 | 314 | 4.0 | 7.0 | 0.00 | 0.00 | 0.00 | 44 | 1010.0 |
| 20260503215208 | 55 | 261 | 4.0 | 6.0 | 0.00 | 0.00 | 0.00 | 43 | 1010.1 |
| 20260503214706 | 54 | 324 | 7.0 | 8.0 | 0.00 | 0.00 | 0.00 | 44 | 1009.8 |
| 20260503214201 | 54 | 264 | 1.0 | 1.0 | 0.00 | 0.00 | 0.00 | 45 | 1010.0 |
| 20260503213655 | 54 | 262 | 3.0 | 5.0 | 0.00 | 0.00 | 0.00 | 44 | 1010.1 |
| 20260503213152 | 55 | 278 | 4.0 | 6.0 | 0.00 | 0.00 | 0.00 | 43 | 1010.0 |
| 20260503212649 | 54 | 291 | 5.0 | 7.0 | 0.00 | 0.00 | 0.00 | 43 | 1010.0 |
| 20260503212146 | 54 | 224 | 1.0 | 1.0 | 0.00 | 0.00 | 0.00 | 45 | 1010.0 |
| 20260503211644 | 53 | 283 | 9.0 | 10.0 | 0.00 | 0.00 | 0.00 | 43 | 1010.1 |
| 20260503211139 | 53 | 292 | 2.0 | 3.0 | 0.00 | 0.00 | 0.00 | 43 | 1010.1 |
| 20260503210636 | 53 | 265 | 3.0 | 5.0 | 0.00 | 0.00 | 0.00 | 44 | 1010.1 |
| 20260503210132 | 53 | 284 | 3.0 | 5.0 | 0.00 | 0.00 | 0.00 | 42 | 1009.9 |
| 20260503205628 | 54 | 288 | 5.0 | 6.0 | 0.00 | 0.00 | 0.00 | 42 | 1010.0 |
| 20260503205125 | 54 | 295 | 11.0 | 13.0 | 0.00 | 0.00 | 0.00 | 42 | 1009.8 |
| 20260503204621 | 55 | 271 | 5.0 | 6.0 | 0.00 | 0.00 | 0.00 | 41 | 1009.7 |
| 20260503204119 | 55 | 305 | 5.0 | 6.0 | 0.00 | 0.00 | 0.00 | 41 | 1009.6 |
| 20260503203616 | 55 | 271 | 6.0 | 8.0 | 0.00 | 0.00 | 0.00 | 42 | 1009.8 |
| 20260503203114 | 55 | 289 | 5.0 | 7.0 | 0.00 | 0.00 | 0.00 | 40 | 1009.8 |
| 20260503202611 | 55 | 229 | 2.0 | 2.0 | 0.00 | 0.00 | 0.00 | 40 | 1009.9 |
| 20260503202108 | 55 | 265 | 4.0 | 6.0 | 0.00 | 0.00 | 0.00 | 40 | 1010.0 |
| 20260503201606 | 55 | 333 | 9.0 | 13.0 | 0.00 | 0.00 | 0.00 | 40 | 1009.9 |
| 20260503201103 | 55 | 301 | 2.0 | 2.0 | 0.00 | 0.00 | 0.00 | 41 | 1010.0 |
| 20260503200600 | 54 | 272 | 3.0 | 5.0 | 0.00 | 0.00 | 0.00 | 42 | 1009.8 |
| 20260503200056 | 54 | 299 | 2.0 | 2.0 | 0.00 | 0.00 | 0.00 | 40 | 1010.0 |
| 20260503195553 | 54 | 307 | 5.0 | 8.0 | 0.00 | 0.00 | 0.00 | 42 | 1010.0 |
| 20260503195050 | 54 | 222 | 7.0 | 10.0 | 0.00 | 0.00 | 0.00 | 39 | 1010.1 |
| 20260503194547 | 54 | 7 | 11.0 | 15.0 | 0.00 | 0.00 | 0.00 | 39 | 1010.1 |
| 20260503194047 | 53 | 287 | 4.0 | 6.0 | 0.00 | 0.00 | 0.00 | 41 | 1010.1 |
| 20260503193544 | 53 | 304 | 6.0 | 8.0 | 0.00 | 0.00 | 0.00 | 40 | 1010.2 |
| 20260503193039 | 54 | 308 | 8.0 | 10.0 | 0.00 | 0.00 | 0.00 | 38 | 1010.4 |
| 20260503192536 | 55 | 288 | 9.0 | 10.0 | 0.00 | 0.00 | 0.00 | 37 | 1010.5 |
| 20260503192032 | 54 | 265 | 6.0 | 8.0 | 0.00 | 0.00 | 0.00 | 39 | 1010.4 |
| 20260503191528 | 54 | 7 | 3.0 | 5.0 | 0.00 | 0.00 | 0.00 | 40 | 1010.4 |
| 20260503191025 | 53 | 317 | 3.0 | 5.0 | 0.00 | 0.00 | 0.00 | 40 | 1010.5 |
| 20260503190522 | 53 | 268 | 10.0 | 13.0 | 0.00 | 0.00 | 0.00 | 38 | 1010.6 |
| 20260503190019 | 54 | 345 | 7.0 | 10.0 | 0.00 | 0.00 | 0.00 | 38 | 1010.8 |
| 20260503185515 | 53 | 239 | 6.0 | 8.0 | 0.00 | 0.00 | 0.00 | 38 | 1010.8 |
| 20260503185015 | 54 | 310 | 5.0 | 6.0 | 0.00 | 0.00 | 0.00 | 37 | 1010.4 |
| 20260503184512 | 53 | 352 | 8.0 | 8.0 | 0.00 | 0.00 | 0.00 | 39 | 1010.7 |
| 20260503184008 | 54 | 278 | 7.0 | 13.0 | 0.00 | 0.00 | 0.00 | 38 | 1010.8 |
| 20260503183505 | 53 | 279 | 3.0 | 5.0 | 0.00 | 0.00 | 0.00 | 38 | 1010.8 |
| 20260503183002 | 53 | 266 | 4.0 | 6.0 | 0.00 | 0.00 | 0.00 | 38 | 1010.9 |
| 20260503182500 | 53 | 254 | 7.0 | 9.0 | 0.00 | 0.00 | 0.00 | 37 | 1011.3 |
| 20260503181958 | 53 | 276 | 7.0 | 9.0 | 0.00 | 0.00 | 0.00 | 38 | 1011.2 |
| 20260503181455 | 53 | 339 | 11.0 | 15.0 | 0.00 | 0.00 | 0.00 | 39 | 1011.0 |
| 20260503180950 | 52 | 269 | 4.0 | 6.0 | 0.00 | 0.00 | 0.00 | 40 | 1011.2 |
| 20260503180449 | 52 | 351 | 5.0 | 7.0 | 0.00 | 0.00 | 0.00 | 38 | 1011.4 |
| 20260503175945 | 52 | 333 | 4.0 | 6.0 | 0.00 | 0.00 | 0.00 | 41 | 1011.2 |
| 20260503175444 | 51 | 314 | 5.0 | 7.0 | 0.00 | 0.00 | 0.00 | 38 | 1011.2 |
| 20260503174939 | 51 | 291 | 6.0 | 8.0 | 0.00 | 0.00 | 0.00 | 40 | 1011.5 |
| 20260503174437 | 52 | 314 | 10.0 | 13.0 | 0.00 | 0.00 | 0.00 | 38 | 1011.6 |
| 20260503173932 | 51 | 4 | 11.0 | 15.0 | 0.00 | 0.00 | 0.00 | 39 | 1011.5 |
| 20260503173428 | 51 | 342 | 13.0 | 18.0 | 0.00 | 0.00 | 0.00 | 39 | 1011.5 |
| 20260503172925 | 50 | 277 | 7.0 | 10.0 | 0.00 | 0.00 | 0.00 | 38 | 1011.7 |
| 20260503172423 | 50 | 312 | 14.0 | 17.0 | 0.00 | 0.00 | 0.00 | 40 | 1011.8 |
| 20260503171919 | 51 | 347 | 10.0 | 15.0 | 0.00 | 0.00 | 0.00 | 38 | 1011.8 |
| 20260503171416 | 50 | 327 | 8.0 | 10.0 | 0.00 | 0.00 | 0.00 | 40 | 1011.6 |
| 20260503170913 | 50 | 276 | 4.0 | 8.0 | 0.00 | 0.00 | 0.00 | 40 | 1012.1 |
| 20260503170409 | 51 | 272 | 15.0 | 20.0 | 0.00 | 0.00 | 0.00 | 36 | 1012.1 |
| 20260503150801 | 47 | 340 | 7.0 | 9.0 | 0.00 | 0.00 | 0.00 | 41 | 1012.8 |
| 20260503150257 | 46 | 294 | 9.0 | 11.0 | 0.00 | 0.00 | 0.00 | 43 | 1012.8 |
| 20260503140222 | 46 | 306 | 1.0 | 3.0 | 0.00 | 0.00 | 0.00 | 46 | 1013.1 |
| 20260503131151 | 42 | 326 | 5.0 | 7.0 | 0.00 | 0.00 | 0.00 | 57 | 1013.1 |
| 20260503130649 | 42 | 287 | 2.0 | 2.0 | 0.00 | 0.00 | 0.00 | 55 | 1013.1 |
| 20260503130146 | 43 | 300 | 4.0 | 5.0 | 0.00 | 0.00 | 0.00 | 55 | 1013.1 |
| 20260503120112 | 41 | 298 | 5.0 | 7.0 | 0.00 | 0.00 | 0.00 | 68 | 1013.1 |
| 20260503110539 | 39 | 290 | 2.0 | 2.0 | 0.00 | 0.00 | 0.00 | 75 | 1012.9 |
| 20260503090426 | 38 | 276 | 1.0 | 2.0 | 0.00 | 0.00 | 0.00 | 76 | 1012.1 |
| 20260503081353 | 38 | 292 | 0.0 | 1.0 | 0.00 | 0.00 | 0.00 | 83 | 1012.1 |
| 20260503080849 | 37 | 192 | 3.0 | 3.0 | 0.00 | 0.00 | 0.00 | 84 | 1012.1 |
| 20260503080347 | 37 | 216 | 2.0 | 2.0 | 0.00 | 0.00 | 0.00 | 85 | 1012.3 |
| 20260503072823 | 36 | 283 | 0.0 | 0.0 | 0.00 | 0.00 | 0.00 | 86 | 1012.1 |
| 20260503072320 | 36 | 284 | 0.0 | 0.0 | 0.00 | 0.00 | 0.00 | 86 | 1012.1 |
| 20260503071816 | 36 | 283 | 0.0 | 0.0 | 0.00 | 0.00 | 0.00 | 86 | 1012.2 |
| 20260503071314 | 36 | 284 | 0.0 | 0.0 | 0.00 | 0.00 | 0.00 | 86 | 1012.1 |
| 20260503070810 | 36 | 284 | 0.0 | 0.0 | 0.00 | 0.00 | 0.00 | 86 | 1012.1 |
| 20260503070308 | 36 | 284 | 0.0 | 0.0 | 0.00 | 0.00 | 0.00 | 86 | 1012.1 |